START_TIME,STEP,MOV.,M34,t_acc.,L5,t_acc.,L18,t_acc.,L14,t_acc.
1979-07-26 09:00:24.040 ,0,0,0.,12.0,0.,12.0,0.,12.0,0.,12.0
1979-07-26 09:00:36.040 ,0,0,0.,12.0,0.,12.0,0.,12.0,0.,12.0
1979-07-26 09:00:48.040 ,0,1,0.,12.0,0.,12.0,0.,12.0,0.,12.0
1979-07-26 09:01:00.040 ,0,1,0.,12.0,0.,12.0,0.,12.0,0.,12.0
1979-07-26 09:01:12.040 ,0,0,0.,12.0,0.,12.0,0.,12.0,0.,12.0
1979-07-26 09:01:24.040 ,0,0,0.,12.0,0.,12.0,0.,12.0,0.,12.0
1979-07-26 09:01:36.040 ,1,1,0.,12.0,0.,12.0,0.,12.0,0.,12.0
1979-07-26 09:01:48.040 ,1,1,0.,12.0,0.,12.0,0.,12.0,0.,12.0
1979-07-26 09:02:00.040 ,1,0,0.,12.0,0.,12.0,0.,12.0,0.,12.0
1979-07-26 09:02:12.040 ,1,0,0.,12.0,0.,12.0,0.,12.0,0.,12.0
1979-07-26 09:02:24.040 ,2,1,0.,12.0,0.,12.0,0.,12.0,0.,12.0
1979-07-26 09:02:36.040 ,2,1,0.,12.0,0.,12.0,0.,12.0,0.,12.0
1979-07-26 09:02:48.040 ,2,0,0.,12.0,0.,12.0,0.,12.0,0.,12.0
1979-07-26 09:03:00.040 ,2,0,0.,12.0,0.,12.0,0.,12.0,0.,12.0
1979-07-26 09:03:12.040 ,3,1,0.,12.0,0.,12.0,0.,12.0,0.,12.0
1979-07-26 09:03:24.040 ,3,1,0.,12.0,0.,12.0,0.,12.0,0.,12.0
1979-07-26 09:03:36.040 ,3,0,0.,12.0,0.,12.0,0.,12.0,0.,12.0
1979-07-26 09:03:48.040 ,3,0,0.,12.0,0.,12.0,0.,12.0,0.,12.0
1979-07-26 09:04:00.040 ,4,1,0.,12.0,0.,12.0,0.,12.0,0.,12.0
1979-07-26 09:04:12.040 ,4,1,0.,12.0,0.,12.0,0.,12.0,0.,12.0
1979-07-26 09:04:24.040 ,4,0,0.,12.0,0.,12.0,0.,12.0,0.,12.0
1979-07-26 09:04:36.040 ,4,0,0.,12.0,0.,12.0,0.,12.0,0.,12.0
1979-07-26 09:04:48.040 ,5,1,0.,12.0,0.,12.0,0.,12.0,0.,12.0
1979-07-26 09:05:00.040 ,5,1,0.,12.0,0.,12.0,0.,12.0,0.,12.0
1979-07-26 09:05:12.040 ,5,0,0.,12.0,0.,12.0,0.,12.0,0.,12.0
1979-07-26 09:05:24.040 ,5,0,0.,12.0,0.,12.0,0.,12.0,0.,12.0
1979-07-26 09:05:36.040 ,6,1,0.,12.0,0.,12.0,0.,12.0,0.,12.0
1979-07-26 09:05:48.040 ,6,1,0.,12.0,0.,12.0,0.,12.0,0.,12.0
1979-07-26 09:06:00.040 ,6,0,0.,12.0,0.,12.0,0.,12.0,0.,12.0
1979-07-26 09:06:12.040 ,6,0,0.,12.0,0.,12.0,0.,12.0,0.,12.0
1979-07-26 09:06:24.040 ,7,0,0.,12.0,0.,12.0,0.,12.0,0.,12.0
1979-07-26 09:06:36.040 ,7,0,0.,12.0,0.,12.0,0.,12.0,0.,12.0
1979-07-26 09:06:48.040 ,7,0,0.,12.0,0.,12.0,0.,12.0,0.,12.0
1979-07-26 09:07:00.040 ,7,0,0.,12.0,0.,12.0,0.,12.0,0.,12.0
1979-07-26 09:07:12.040 ,4,1,0.,12.0,0.,12.0,1.,12.0,0.,12.0
1979-07-26 09:07:24.040 ,4,1,0.,12.0,0.,12.0,0.,12.0,0.,12.0
1979-07-26 09:07:36.040 ,0,1,0.,12.0,0.,12.0,0.,12.0,0.,12.0
1979-07-26 09:07:48.040 ,0,1,0.,12.0,0.,12.0,0.,12.0,0.,12.0
1979-07-26 09:08:00.040 ,0,0,0.,12.0,0.,12.0,0.,12.0,0.,12.0
1979-07-26 09:08:12.040 ,0,0,,0,,0,,0,,0
1979-07-26 09:08:24.040 ,0,0,,0,,0,,0,,0
1979-07-26 09:08:36.040 ,0,0,0.,12.0,0.,12.0,0.,12.0,0.,12.0
1979-07-26 09:08:48.040 ,4,1,0.,12.0,0.,12.0,0.,12.0,0.,12.0
1979-07-26 09:09:00.040 ,4,1,0.,12.0,0.,12.0,0.,12.0,0.,12.0
1979-07-26 09:09:12.040 ,0,1,0.,12.0,0.,12.0,0.,12.0,0.,12.0
1979-07-26 09:09:24.040 ,0,1,0.,12.0,0.,12.0,0.,12.0,0.,12.0
1979-07-26 09:09:36.040 ,3,1,0.,12.0,0.,12.0,0.,12.0,0.,12.0
1979-07-26 09:09:48.040 ,3,1,0.,12.0,0.,12.0,0.,12.0,0.,12.0
1979-07-26 09:10:00.040 ,7,1,0.,12.0,0.,12.0,0.,12.0,0.,12.0
1979-07-26 09:10:12.040 ,7,1,0.,12.0,0.,12.0,0.,12.0,0.,12.0
1979-07-26 09:10:24.040 ,4,1,0.,12.0,0.,12.0,0.,12.0,0.,12.0
1979-07-26 09:10:36.040 ,4,1,0.,12.0,0.,12.0,0.,12.0,0.,12.0
1979-07-26 09:10:48.040 ,0,1,0.,12.0,0.,12.0,0.,12.0,0.,12.0
1979-07-26 09:11:00.040 ,0,1,0.,12.0,0.,12.0,0.,12.0,0.,12.0
1979-07-26 09:11:12.040 ,0,0,0.,12.0,0.,12.0,0.,12.0,0.,12.0
1979-07-26 09:11:24.040 ,0,0,0.,12.0,0.,12.0,0.,12.0,0.,12.0
1979-07-26 09:11:36.040 ,7,1,0.,12.0,0.,12.0,0.,12.0,0.,12.0
1979-07-26 09:11:48.040 ,7,1,0.,12.0,0.,12.0,0.,12.0,0.,12.0
1979-07-26 09:12:00.040 ,4,1,0.,12.0,0.,12.0,0.,12.0,0.,12.0
1979-07-26 09:12:12.040 ,4,1,0.,12.0,0.,12.0,0.,12.0,0.,12.0
1979-07-26 09:12:24.040 ,0,1,0.,12.0,0.,12.0,0.,12.0,0.,12.0
1979-07-26 09:12:36.040 ,0,1,0.,12.0,0.,12.0,0.,12.0,0.,12.0
1979-07-26 09:12:48.040 ,3,1,0.,12.0,0.,12.0,0.,12.0,0.,12.0
1979-07-26 09:13:00.040 ,3,1,0.,12.0,0.,12.0,0.,12.0,0.,12.0
1979-07-26 09:13:12.040 ,7,1,0.,12.0,0.,12.0,0.,12.0,0.,12.0
1979-07-26 09:13:24.040 ,7,1,0.,12.0,0.,12.0,0.,12.0,0.,12.0
1979-07-26 09:13:36.040 ,4,1,0.,12.0,0.,12.0,0.,12.0,0.,12.0
1979-07-26 09:13:48.040 ,4,1,0.,12.0,0.,12.0,0.,12.0,0.,12.0
1979-07-26 09:14:00.040 ,0,1,0.,12.0,0.,12.0,0.,12.0,0.,12.0
1979-07-26 09:14:12.040 ,0,1,0.,12.0,0.,12.0,0.,12.0,0.,12.0
1979-07-26 09:14:24.040 ,3,1,0.,12.0,0.,12.0,0.,12.0,0.,12.0
1979-07-26 09:14:36.040 ,3,1,0.,12.0,0.,12.0,0.,12.0,0.,12.0
1979-07-26 09:14:48.040 ,7,1,0.,12.0,0.,12.0,0.,12.0,0.,12.0
1979-07-26 09:15:00.040 ,7,1,0.,12.0,0.,12.0,0.,12.0,0.,12.0
1979-07-26 09:15:12.040 ,4,1,0.,12.0,0.,12.0,0.,12.0,0.,12.0
1979-07-26 09:15:24.040 ,4,1,0.,12.0,0.,12.0,0.,12.0,0.,12.0
1979-07-26 09:15:36.040 ,0,1,0.,12.0,0.,12.0,0.,12.0,0.,12.0
1979-07-26 09:15:48.040 ,0,1,0.,12.0,0.,12.0,0.,12.0,0.,12.0
1979-07-26 09:16:24.040 ,7,1,0.,12.0,0.,12.0,0.,12.0,0.,12.0
1979-07-26 09:16:36.040 ,7,1,0.,12.0,0.,12.0,0.,12.0,0.,12.0
1979-07-26 09:16:48.040 ,4,1,0.,12.0,0.,12.0,0.,12.0,0.,12.0
1979-07-26 09:17:00.040 ,4,1,0.,12.0,0.,12.0,0.,12.0,0.,12.0
1979-07-26 09:17:12.040 ,0,1,0.,12.0,0.,12.0,0.,12.0,0.,12.0
1979-07-26 09:17:24.040 ,0,1,0.,12.0,0.,12.0,0.,12.0,0.,12.0
1979-07-26 09:17:36.040 ,0,0,0.,12.0,0.,12.0,0.,12.0,0.,12.0
1979-07-26 09:17:48.040 ,0,0,0.,12.0,0.,12.0,0.,12.0,0.,12.0
1979-07-26 09:18:00.040 ,0,0,0.,12.0,0.,12.0,0.,12.0,0.,12.0
1979-07-26 09:18:12.040 ,0,0,0.,12.0,0.,12.0,0.,12.0,0.,12.0
1979-07-26 09:18:24.040 ,5,1,0.,12.0,0.,12.0,0.,12.0,0.,12.0
1979-07-26 09:18:36.040 ,5,1,0.,12.0,0.,12.0,0.,12.0,0.,12.0
1979-07-26 09:18:48.040 ,5,0,0.,12.0,0.,12.0,0.,12.0,0.,12.0
1979-07-26 09:19:00.040 ,5,0,0.,12.0,0.,12.0,0.,12.0,0.,12.0
1979-07-26 09:19:12.040 ,4,1,0.,12.0,0.,12.0,0.,12.0,0.,12.0
1979-07-26 09:19:24.040 ,4,1,0.,12.0,0.,12.0,0.,12.0,0.,12.0
1979-07-26 09:19:36.040 ,4,0,0.,12.0,0.,12.0,0.,12.0,0.,12.0
1979-07-26 09:19:48.040 ,4,0,0.,12.0,0.,12.0,0.,12.0,0.,12.0
1979-07-26 09:20:00.040 ,3,1,0.,12.0,0.,12.0,0.,12.0,0.,12.0
1979-07-26 09:20:12.040 ,3,1,0.,12.0,0.,12.0,0.,12.0,0.,12.0
1979-07-26 09:20:24.040 ,3,0,0.,12.0,0.,12.0,0.,12.0,0.,12.0
1979-07-26 09:20:36.040 ,3,0,0.,12.0,0.,12.0,0.,12.0,0.,12.0
1979-07-26 09:20:48.040 ,2,1,0.,12.0,0.,12.0,0.,12.0,0.,12.0
1979-07-26 09:21:00.040 ,2,1,0.,12.0,0.,12.0,0.,12.0,0.,12.0
1979-07-26 09:21:12.040 ,2,0,0.,12.0,0.,12.0,0.,12.0,0.,12.0
1979-07-26 09:21:24.040 ,2,0,0.,12.0,0.,12.0,0.,12.0,0.,12.0
1979-07-26 09:21:36.040 ,1,1,0.,12.0,0.,12.0,0.,12.0,0.,12.0
1979-07-26 09:21:48.040 ,1,1,0.,12.0,0.,12.0,0.,12.0,0.,12.0
1979-07-26 09:22:00.040 ,1,0,0.,12.0,0.,12.0,0.,12.0,0.,12.0
1979-07-26 09:22:12.040 ,1,0,0.,12.0,0.,12.0,0.,12.0,0.,12.0
1979-07-26 09:22:24.040 ,0,1,0.,12.0,0.,12.0,0.,12.0,0.,12.0
1979-07-26 09:22:36.040 ,0,1,0.,12.0,0.,12.0,0.,12.0,0.,12.0
1979-07-26 09:22:48.040 ,0,0,0.,12.0,0.,12.0,0.,12.0,0.,12.0
1979-07-26 09:23:00.040 ,0,0,0.,12.0,0.,12.0,0.,12.0,0.,12.0
1979-07-26 09:23:12.040 ,0,1,0.,12.0,0.,12.0,0.,12.0,0.,12.0
1979-07-26 09:23:24.040 ,0,1,0.,12.0,0.,12.0,0.,12.0,0.,12.0
1979-07-26 09:23:36.040 ,0,0,0.,12.0,0.,12.0,0.,12.0,0.,12.0
1979-07-26 09:23:48.040 ,0,0,0.,12.0,0.,12.0,0.,12.0,0.,12.0
1979-07-26 09:24:00.040 ,1,1,0.,12.0,0.,12.0,0.,12.0,0.,12.0
1979-07-26 09:24:12.040 ,1,1,0.,12.0,0.,12.0,0.,12.0,0.,12.0
1979-07-26 09:24:24.040 ,1,0,0.,12.0,0.,12.0,0.,12.0,0.,12.0
1979-07-26 09:24:36.040 ,1,0,0.,12.0,0.,12.0,0.,12.0,0.,12.0
1979-07-26 09:24:48.040 ,2,1,0.,12.0,0.,12.0,0.,12.0,0.,12.0
1979-07-26 09:25:00.040 ,2,1,0.,12.0,0.,12.0,0.,12.0,0.,12.0
1979-07-26 09:25:12.040 ,2,0,0.,12.0,0.,12.0,0.,12.0,0.,12.0
1979-07-26 09:25:24.040 ,2,0,0.,12.0,0.,12.0,0.,12.0,0.,12.0
1979-07-26 09:25:36.040 ,3,1,0.,12.0,0.,12.0,0.,12.0,0.,12.0
1979-07-26 09:25:48.040 ,3,1,1.,12.0,0.,12.0,0.,12.0,0.,12.0
1979-07-26 09:26:00.040 ,3,0,0.,12.0,0.,12.0,0.,12.0,0.,12.0
1979-07-26 09:26:12.040 ,3,0,0.,12.0,0.,12.0,0.,12.0,0.,12.0
1979-07-26 09:26:24.040 ,4,1,0.,12.0,0.,12.0,0.,12.0,0.,12.0
1979-07-26 09:26:36.040 ,4,1,0.,12.0,0.,12.0,0.,12.0,0.,12.0
1979-07-26 09:26:48.040 ,4,0,0.,12.0,0.,12.0,0.,12.0,0.,12.0
1979-07-26 09:27:00.040 ,4,0,0.,12.0,0.,12.0,0.,12.0,0.,12.0
1979-07-26 09:27:12.040 ,5,1,0.,12.0,0.,12.0,0.,12.0,0.,12.0
1979-07-26 09:27:24.040 ,5,1,0.,12.0,0.,12.0,0.,12.0,0.,12.0
1979-07-26 09:27:36.040 ,5,0,0.,12.0,0.,12.0,0.,12.0,0.,12.0
1979-07-26 09:27:48.040 ,5,0,0.,12.0,0.,12.0,0.,12.0,0.,12.0
1979-07-26 09:28:00.040 ,6,1,0.,12.0,0.,12.0,0.,12.0,0.,12.0
1979-07-26 09:28:12.040 ,6,1,0.,12.0,0.,12.0,0.,12.0,0.,12.0
1979-07-26 09:28:24.040 ,6,0,0.,12.0,0.,12.0,0.,12.0,0.,12.0
1979-07-26 09:28:36.040 ,6,0,0.,12.0,0.,12.0,0.,12.0,0.,12.0
1979-07-26 09:28:48.040 ,7,1,0.,12.0,0.,12.0,0.,12.0,0.,12.0
1979-07-26 09:29:00.040 ,7,1,0.,12.0,0.,12.0,0.,12.0,0.,12.0
1979-07-26 09:29:12.040 ,7,0,0.,12.0,0.,12.0,0.,12.0,0.,12.0
1979-07-26 09:29:24.040 ,7,0,0.,12.0,0.,12.0,0.,12.0,0.,12.0
1979-07-26 09:29:36.040 ,7,1,0.,12.0,0.,12.0,0.,12.0,0.,12.0
1979-07-26 09:29:48.040 ,7,1,0.,12.0,0.,12.0,0.,12.0,0.,12.0
1979-07-26 09:30:00.040 ,7,0,0.,12.0,0.,12.0,0.,12.0,0.,12.0
1979-07-26 09:30:12.040 ,7,0,0.,12.0,0.,12.0,0.,12.0,0.,12.0
1979-07-26 09:30:24.040 ,6,1,0.,12.0,0.,12.0,0.,12.0,0.,12.0
1979-07-26 09:30:36.040 ,6,1,0.,12.0,0.,12.0,0.,12.0,0.,12.0
1979-07-26 09:30:48.040 ,6,0,0.,12.0,0.,12.0,0.,12.0,0.,12.0
1979-07-26 09:31:00.040 ,6,0,0.,12.0,0.,12.0,0.,12.0,0.,12.0
1979-07-26 09:31:12.040 ,5,1,0.,12.0,0.,12.0,0.,12.0,0.,12.0
1979-07-26 09:31:24.040 ,5,1,0.,12.0,0.,12.0,0.,12.0,0.,12.0
1979-07-26 09:31:36.040 ,5,0,0.,12.0,0.,12.0,0.,12.0,0.,12.0
1979-07-26 09:31:48.040 ,5,0,0.,12.0,0.,12.0,0.,12.0,0.,12.0
1979-07-26 09:32:00.040 ,4,1,0.,12.0,0.,12.0,0.,12.0,0.,12.0
1979-07-26 09:32:12.040 ,4,1,0.,12.0,0.,12.0,0.,12.0,0.,12.0
1979-07-26 09:32:24.040 ,4,0,0.,12.0,0.,12.0,0.,12.0,0.,12.0
1979-07-26 09:32:36.040 ,4,0,0.,12.0,0.,12.0,0.,12.0,0.,12.0
1979-07-26 09:32:48.040 ,3,1,0.,12.0,0.,12.0,0.,12.0,0.,12.0
1979-07-26 09:33:00.040 ,3,1,0.,12.0,0.,12.0,0.,12.0,0.,12.0
1979-07-26 09:33:12.040 ,3,0,0.,12.0,0.,12.0,0.,12.0,0.,12.0
1979-07-26 09:33:24.040 ,3,0,0.,12.0,0.,12.0,0.,12.0,0.,12.0
1979-07-26 09:33:36.040 ,2,1,0.,12.0,0.,12.0,0.,12.0,0.,12.0
1979-07-26 09:33:48.040 ,2,1,0.,12.0,0.,12.0,0.,12.0,0.,12.0
1979-07-26 09:34:00.040 ,2,0,0.,12.0,0.,12.0,0.,12.0,0.,12.0
1979-07-26 09:34:12.040 ,2,0,0.,12.0,0.,12.0,0.,12.0,0.,12.0
1979-07-26 09:34:24.040 ,1,1,0.,12.0,0.,12.0,0.,12.0,0.,12.0
1979-07-26 09:34:36.040 ,1,1,0.,12.0,0.,12.0,0.,12.0,0.,12.0
1979-07-26 09:34:48.040 ,1,0,0.,12.0,0.,12.0,0.,12.0,0.,12.0
1979-07-26 09:35:00.040 ,1,0,0.,12.0,0.,12.0,0.,12.0,0.,12.0
1979-07-26 09:35:12.040 ,0,1,0.,12.0,0.,12.0,0.,12.0,0.,12.0
1979-07-26 09:35:24.040 ,0,1,0.,12.0,0.,12.0,0.,12.0,0.,12.0
1979-07-26 09:35:36.040 ,0,0,0.,12.0,0.,12.0,0.,12.0,0.,12.0
1979-07-26 09:35:48.040 ,0,0,0.,12.0,0.,12.0,0.,12.0,0.,12.0
1979-07-26 09:36:00.040 ,0,1,0.,12.0,0.,12.0,0.,12.0,0.,12.0
1979-07-26 09:36:12.040 ,0,1,0.,12.0,0.,12.0,0.,12.0,0.,12.0
1979-07-26 09:36:24.040 ,0,0,0.,12.0,0.,12.0,0.,12.0,0.,12.0
1979-07-26 09:36:36.040 ,0,0,0.,12.0,0.,12.0,0.,12.0,0.,12.0
1979-07-26 09:36:48.040 ,1,1,0.,12.0,0.,12.0,0.,12.0,0.,12.0
1979-07-26 09:37:00.040 ,1,1,0.,12.0,0.,12.0,0.,12.0,0.,12.0
1979-07-26 09:37:12.040 ,1,0,0.,12.0,0.,12.0,0.,12.0,0.,12.0
1979-07-26 09:37:24.040 ,1,0,0.,12.0,0.,12.0,0.,12.0,0.,12.0
1979-07-26 09:37:36.040 ,2,1,0.,12.0,0.,12.0,0.,12.0,0.,12.0
1979-07-26 09:37:48.040 ,2,1,0.,12.0,0.,12.0,0.,12.0,0.,12.0
1979-07-26 09:38:00.040 ,2,0,0.,12.0,0.,12.0,0.,12.0,1.,12.0
1979-07-26 09:38:12.040 ,2,0,0.,12.0,0.,12.0,0.,12.0,0.,12.0
1979-07-26 09:38:24.040 ,3,1,0.,12.0,0.,12.0,0.,12.0,0.,12.0
1979-07-26 09:38:36.040 ,3,1,0.,12.0,0.,12.0,0.,12.0,0.,12.0
1979-07-26 09:38:48.040 ,3,0,0.,12.0,0.,12.0,0.,12.0,0.,12.0
1979-07-26 09:39:00.040 ,3,0,0.,12.0,0.,12.0,0.,12.0,0.,12.0
1979-07-26 09:39:12.040 ,4,1,0.,12.0,0.,12.0,0.,12.0,0.,12.0
1979-07-26 09:39:24.040 ,4,1,0.,12.0,0.,12.0,0.,12.0,0.,12.0
1979-07-26 09:39:36.040 ,4,0,1.,12.0,0.,12.0,0.,12.0,0.,12.0
1979-07-26 09:39:48.040 ,4,0,0.,12.0,0.,12.0,0.,12.0,0.,12.0
1979-07-26 09:40:00.040 ,5,1,0.,12.0,0.,12.0,0.,12.0,0.,12.0
1979-07-26 09:40:12.040 ,5,1,0.,12.0,0.,12.0,0.,12.0,0.,12.0
1979-07-26 09:40:24.040 ,5,0,0.,12.0,0.,12.0,0.,12.0,0.,12.0
1979-07-26 09:40:36.040 ,5,0,0.,12.0,0.,12.0,0.,12.0,0.,12.0
1979-07-26 09:40:48.040 ,6,1,0.,12.0,0.,12.0,0.,12.0,0.,12.0
1979-07-26 09:41:00.040 ,6,1,0.,12.0,0.,12.0,0.,12.0,0.,12.0
1979-07-26 09:41:12.040 ,6,0,1.,12.0,0.,12.0,0.,12.0,0.,12.0
1979-07-26 09:41:24.040 ,6,0,0.,12.0,0.,12.0,0.,12.0,0.,12.0
1979-07-26 09:41:36.040 ,0,0,0.,12.0,0.,12.0,0.,12.0,0.,12.0
1979-07-26 09:41:48.040 ,0,0,0.,12.0,0.,12.0,0.,12.0,0.,12.0
1979-07-26 09:42:00.040 ,0,0,0.,12.0,0.,12.0,0.,12.0,0.,12.0
1979-07-26 09:42:12.040 ,0,0,0.,12.0,0.,12.0,0.,12.0,0.,12.0
1979-07-26 09:42:24.040 ,7,1,0.,12.0,0.,12.0,0.,12.0,0.,12.0
1979-07-26 09:42:36.040 ,7,1,0.,12.0,0.,12.0,0.,12.0,0.,12.0
1979-07-26 09:42:48.040 ,7,0,0.,12.0,0.,12.0,0.,12.0,0.,12.0
1979-07-26 09:43:00.040 ,7,0,0.,12.0,0.,12.0,0.,12.0,0.,12.0
1979-07-26 09:43:12.040 ,6,1,0.,12.0,0.,12.0,0.,12.0,0.,12.0
1979-07-26 09:43:24.040 ,6,1,0.,12.0,0.,12.0,0.,12.0,0.,12.0
1979-07-26 09:43:36.040 ,6,0,0.,12.0,0.,12.0,0.,12.0,0.,12.0
1979-07-26 09:43:48.040 ,6,0,0.,12.0,0.,12.0,0.,12.0,0.,12.0
1979-07-26 09:44:00.040 ,5,1,0.,12.0,0.,12.0,0.,12.0,0.,12.0
1979-07-26 09:44:12.040 ,5,1,0.,12.0,0.,12.0,0.,12.0,0.,12.0
1979-07-26 09:44:24.040 ,5,0,0.,12.0,0.,12.0,0.,12.0,0.,12.0
1979-07-26 09:44:36.040 ,5,0,0.,12.0,0.,12.0,0.,12.0,0.,12.0
1979-07-26 09:44:48.040 ,4,1,0.,12.0,0.,12.0,0.,12.0,0.,12.0
1979-07-26 09:45:00.040 ,4,1,0.,12.0,0.,12.0,0.,12.0,0.,12.0
1979-07-26 09:45:12.040 ,4,0,0.,12.0,0.,12.0,0.,12.0,0.,12.0
1979-07-26 09:45:24.040 ,4,0,0.,12.0,0.,12.0,0.,12.0,0.,12.0
1979-07-26 09:45:36.040 ,3,1,0.,12.0,0.,12.0,0.,12.0,0.,12.0
1979-07-26 09:45:48.040 ,3,1,0.,12.0,0.,12.0,0.,12.0,0.,12.0
1979-07-26 09:46:00.040 ,3,0,0.,12.0,0.,12.0,0.,12.0,0.,12.0
1979-07-26 09:46:12.040 ,3,0,0.,12.0,0.,12.0,0.,12.0,0.,12.0
1979-07-26 09:46:24.040 ,2,1,0.,12.0,0.,12.0,0.,12.0,0.,12.0
1979-07-26 09:46:36.040 ,2,1,0.,12.0,0.,12.0,0.,12.0,0.,12.0
1979-07-26 09:46:48.040 ,2,0,0.,12.0,0.,12.0,0.,12.0,0.,12.0
1979-07-26 09:47:00.040 ,2,0,0.,12.0,0.,12.0,0.,12.0,0.,12.0
1979-07-26 09:47:12.040 ,1,1,0.,12.0,0.,12.0,0.,12.0,0.,12.0
1979-07-26 09:47:24.040 ,1,1,0.,12.0,0.,12.0,0.,12.0,0.,12.0
1979-07-26 09:47:36.040 ,1,0,0.,12.0,0.,12.0,0.,12.0,0.,12.0
1979-07-26 09:47:48.040 ,1,0,0.,12.0,0.,12.0,0.,12.0,0.,12.0
1979-07-26 09:48:00.040 ,0,1,0.,12.0,0.,12.0,0.,12.0,0.,12.0
1979-07-26 09:48:12.040 ,0,1,0.,12.0,0.,12.0,0.,12.0,0.,12.0
1979-07-26 09:48:24.040 ,0,0,0.,12.0,0.,12.0,0.,12.0,0.,12.0
1979-07-26 09:48:36.040 ,0,0,0.,12.0,0.,12.0,0.,12.0,0.,12.0
1979-07-26 09:48:48.040 ,0,1,0.,12.0,0.,12.0,0.,12.0,0.,12.0
1979-07-26 09:49:00.040 ,0,1,0.,12.0,0.,12.0,0.,12.0,0.,12.0
1979-07-26 09:49:12.040 ,0,0,0.,12.0,0.,12.0,0.,12.0,0.,12.0
1979-07-26 09:49:24.040 ,0,0,0.,12.0,0.,12.0,0.,12.0,0.,12.0
1979-07-26 09:49:36.040 ,1,1,0.,12.0,0.,12.0,0.,12.0,0.,12.0
1979-07-26 09:49:48.040 ,1,1,0.,12.0,0.,12.0,0.,12.0,0.,12.0
1979-07-26 09:50:00.040 ,1,0,0.,12.0,0.,12.0,0.,12.0,0.,12.0
1979-07-26 09:50:12.040 ,1,0,0.,12.0,0.,12.0,0.,12.0,0.,12.0
1979-07-26 09:50:24.040 ,2,1,0.,12.0,0.,12.0,0.,12.0,0.,12.0
1979-07-26 09:50:36.040 ,2,1,0.,12.0,0.,12.0,0.,12.0,0.,12.0
1979-07-26 09:50:48.040 ,2,0,0.,12.0,0.,12.0,0.,12.0,0.,12.0
1979-07-26 09:51:00.040 ,2,0,0.,12.0,0.,12.0,0.,12.0,0.,12.0
1979-07-26 09:51:12.040 ,3,1,0.,12.0,0.,12.0,0.,12.0,0.,12.0
1979-07-26 09:51:24.040 ,3,1,0.,12.0,0.,12.0,0.,12.0,0.,12.0
1979-07-26 09:51:36.040 ,3,0,0.,12.0,0.,12.0,0.,12.0,0.,12.0
1979-07-26 09:51:48.040 ,3,0,0.,12.0,0.,12.0,0.,12.0,0.,12.0
1979-07-26 09:52:00.040 ,4,1,0.,12.0,0.,12.0,0.,12.0,0.,12.0
1979-07-26 09:52:12.040 ,4,1,0.,12.0,0.,12.0,0.,12.0,0.,12.0
1979-07-26 09:52:24.040 ,4,0,0.,12.0,0.,12.0,0.,12.0,0.,12.0
1979-07-26 09:52:36.040 ,4,0,0.,12.0,0.,12.0,0.,12.0,0.,12.0
1979-07-26 09:52:48.040 ,5,1,0.,12.0,0.,12.0,0.,12.0,0.,12.0
1979-07-26 09:53:00.040 ,5,1,0.,12.0,0.,12.0,0.,12.0,0.,12.0
1979-07-26 09:53:12.040 ,5,0,0.,12.0,0.,12.0,0.,12.0,0.,12.0
1979-07-26 09:53:24.040 ,5,0,0.,12.0,0.,12.0,0.,12.0,0.,12.0
1979-07-26 09:53:36.040 ,6,1,0.,12.0,0.,12.0,0.,12.0,0.,12.0
1979-07-26 09:53:48.040 ,6,1,0.,12.0,0.,12.0,0.,12.0,0.,12.0
1979-07-26 09:54:00.040 ,6,0,0.,12.0,0.,12.0,0.,12.0,0.,12.0
1979-07-26 09:54:12.040 ,6,0,0.,12.0,0.,12.0,0.,12.0,0.,12.0
1979-07-26 09:54:24.040 ,7,0,0.,12.0,0.,12.0,0.,12.0,0.,12.0
1979-07-26 09:54:36.040 ,7,0,0.,12.0,0.,12.0,0.,12.0,0.,12.0
1979-07-26 09:54:48.040 ,7,0,0.,12.0,0.,12.0,0.,12.0,0.,12.0
1979-07-26 09:55:00.040 ,7,0,0.,12.0,0.,12.0,0.,12.0,0.,12.0
1979-07-26 09:55:12.040 ,4,1,0.,12.0,0.,12.0,0.,12.0,0.,12.0
1979-07-26 09:55:24.040 ,4,1,0.,12.0,0.,12.0,0.,12.0,0.,12.0
1979-07-26 09:55:36.040 ,0,1,0.,12.0,0.,12.0,0.,12.0,0.,12.0
1979-07-26 09:55:48.040 ,0,1,0.,12.0,0.,12.0,0.,12.0,1.,12.0
1979-07-26 09:56:00.040 ,3,1,0.,12.0,0.,12.0,0.,12.0,0.,12.0
1979-07-26 09:56:12.040 ,3,1,0.,12.0,0.,12.0,0.,12.0,0.,12.0
1979-07-26 09:56:24.040 ,7,1,0.,12.0,0.,12.0,0.,12.0,0.,12.0
1979-07-26 09:56:36.040 ,7,1,0.,12.0,0.,12.0,0.,12.0,0.,12.0
1979-07-26 09:56:48.040 ,4,1,0.,12.0,0.,12.0,0.,12.0,0.,12.0
1979-07-26 09:57:00.040 ,4,1,0.,12.0,0.,12.0,0.,12.0,0.,12.0
1979-07-26 09:57:12.040 ,0,1,0.,12.0,0.,12.0,0.,12.0,0.,12.0
1979-07-26 09:57:24.040 ,0,1,0.,12.0,0.,12.0,0.,12.0,0.,12.0
1979-07-26 09:57:36.040 ,3,1,0.,12.0,0.,12.0,0.,12.0,0.,12.0
1979-07-26 09:57:48.040 ,3,1,0.,12.0,0.,12.0,0.,12.0,0.,12.0
1979-07-26 09:58:00.040 ,7,1,0.,12.0,0.,12.0,0.,12.0,0.,12.0
1979-07-26 09:58:12.040 ,7,1,0.,12.0,0.,12.0,0.,12.0,0.,12.0
1979-07-26 09:58:24.040 ,4,1,0.,12.0,0.,12.0,0.,12.0,0.,12.0
1979-07-26 09:58:36.040 ,4,1,0.,12.0,0.,12.0,0.,12.0,1.,12.0
1979-07-26 09:58:48.040 ,0,1,0.,12.0,0.,12.0,0.,12.0,0.,12.0
1979-07-26 09:59:00.040 ,0,1,0.,12.0,0.,12.0,0.,12.0,0.,12.0
1979-07-26 09:59:12.040 ,3,1,0.,12.0,0.,12.0,0.,12.0,0.,12.0
1979-07-26 09:59:24.040 ,3,1,0.,12.0,0.,12.0,0.,12.0,0.,12.0
1979-07-26 09:59:36.040 ,7,1,0.,12.0,0.,12.0,0.,12.0,0.,12.0
1979-07-26 09:59:48.040 ,7,1,0.,12.0,0.,12.0,0.,12.0,0.,12.0
1979-07-26 10:00:00.040 ,4,1,0.,12.0,0.,12.0,0.,12.0,0.,12.0
1979-07-26 10:00:12.040 ,4,1,0.,12.0,0.,12.0,0.,12.0,0.,12.0
1979-07-26 10:00:24.040 ,0,1,0.,12.0,0.,12.0,0.,12.0,0.,12.0
1979-07-26 10:00:36.040 ,0,1,0.,12.0,0.,12.0,0.,12.0,0.,12.0
1979-07-26 10:00:48.040 ,3,1,0.,12.0,0.,12.0,0.,12.0,0.,12.0
1979-07-26 10:01:00.040 ,3,1,0.,12.0,0.,12.0,0.,12.0,0.,12.0
1979-07-26 10:01:12.040 ,7,1,0.,12.0,0.,12.0,0.,12.0,0.,12.0
1979-07-26 10:01:24.040 ,7,1,0.,12.0,0.,12.0,0.,12.0,0.,12.0
1979-07-26 10:01:36.040 ,4,1,0.,12.0,0.,12.0,0.,12.0,0.,12.0
1979-07-26 10:01:48.040 ,4,1,0.,12.0,0.,12.0,0.,12.0,0.,12.0
1979-07-26 10:02:00.040 ,0,1,0.,12.0,0.,12.0,0.,12.0,0.,12.0
1979-07-26 10:02:12.040 ,0,1,0.,12.0,0.,12.0,0.,12.0,0.,12.0
1979-07-26 10:02:24.040 ,3,1,0.,12.0,0.,12.0,0.,12.0,0.,12.0
1979-07-26 10:02:36.040 ,3,1,0.,12.0,0.,12.0,0.,12.0,0.,12.0
1979-07-26 10:02:48.040 ,0,0,0.,12.0,0.,12.0,0.,12.0,0.,12.0
1979-07-26 10:03:00.040 ,0,0,0.,12.0,0.,12.0,0.,12.0,0.,12.0
1979-07-26 10:03:47.440 ,0,0,,0,,0,,0,,0
1979-07-26 10:03:59.440 ,0,0,0.,12.0,0.,12.0,0.,12.0,0.,12.0
1979-07-26 10:04:00.040 ,3,1,0.,12.0,0.,12.0,0.,12.0,0.,12.0
1979-07-26 10:04:12.040 ,3,1,0.,12.0,0.,12.0,0.,12.0,0.,12.0
1979-07-26 10:04:24.040 ,7,1,0.,12.0,0.,12.0,0.,12.0,0.,12.0
1979-07-26 10:04:36.040 ,7,1,0.,12.0,0.,12.0,0.,12.0,0.,12.0
1979-07-26 10:04:48.040 ,4,1,0.,12.0,0.,12.0,0.,12.0,0.,12.0
1979-07-26 10:05:00.040 ,4,1,0.,12.0,0.,12.0,0.,12.0,0.,12.0
1979-07-26 10:05:12.040 ,0,1,0.,12.0,0.,12.0,0.,12.0,0.,12.0
1979-07-26 10:05:24.040 ,0,1,0.,12.0,0.,12.0,0.,12.0,0.,12.0
1979-07-26 10:05:36.040 ,0,0,0.,12.0,0.,12.0,0.,12.0,0.,12.0
1979-07-26 10:05:48.040 ,0,0,0.,12.0,0.,12.0,0.,12.0,0.,12.0
1979-07-26 10:06:00.040 ,0,0,0.,12.0,0.,12.0,0.,12.0,0.,12.0
1979-07-26 10:06:12.040 ,0,0,0.,12.0,0.,12.0,0.,12.0,0.,12.0
1979-07-26 10:06:24.040 ,5,1,0.,12.0,0.,12.0,0.,12.0,0.,12.0
1979-07-26 10:06:36.040 ,5,1,0.,12.0,0.,12.0,0.,12.0,0.,12.0
1979-07-26 10:06:48.040 ,5,0,0.,12.0,0.,12.0,0.,12.0,0.,12.0
1979-07-26 10:07:00.040 ,5,0,0.,12.0,0.,12.0,0.,12.0,0.,12.0
1979-07-26 10:07:12.040 ,4,1,0.,12.0,0.,12.0,0.,12.0,0.,12.0
1979-07-26 10:07:24.040 ,4,1,0.,12.0,0.,12.0,0.,12.0,0.,12.0
1979-07-26 10:07:36.040 ,4,0,0.,12.0,0.,12.0,0.,12.0,0.,12.0
1979-07-26 10:07:48.040 ,4,0,0.,12.0,0.,12.0,0.,12.0,0.,12.0
1979-07-26 10:08:00.040 ,3,1,0.,12.0,0.,12.0,0.,12.0,0.,12.0
1979-07-26 10:08:12.040 ,3,1,0.,12.0,0.,12.0,0.,12.0,0.,12.0
1979-07-26 10:08:24.040 ,3,0,0.,12.0,0.,12.0,0.,12.0,0.,12.0
1979-07-26 10:08:36.040 ,3,0,0.,12.0,0.,12.0,0.,12.0,0.,12.0
1979-07-26 10:08:48.040 ,2,1,0.,12.0,0.,12.0,0.,12.0,0.,12.0
1979-07-26 10:09:00.040 ,2,1,0.,12.0,0.,12.0,0.,12.0,0.,12.0
1979-07-26 10:09:12.040 ,2,0,0.,12.0,0.,12.0,0.,12.0,0.,12.0
1979-07-26 10:09:24.040 ,2,0,0.,12.0,0.,12.0,0.,12.0,0.,12.0
1979-07-26 10:09:36.040 ,1,1,0.,12.0,0.,12.0,0.,12.0,0.,12.0
1979-07-26 10:09:48.040 ,1,1,0.,12.0,0.,12.0,0.,12.0,0.,12.0
1979-07-26 10:10:00.040 ,1,0,0.,12.0,0.,12.0,0.,12.0,0.,12.0
1979-07-26 10:10:12.040 ,1,0,0.,12.0,0.,12.0,0.,12.0,0.,12.0
1979-07-26 10:10:24.040 ,0,1,0.,12.0,0.,12.0,0.,12.0,0.,12.0
1979-07-26 10:10:36.040 ,0,1,0.,12.0,0.,12.0,0.,12.0,0.,12.0
1979-07-26 10:10:48.040 ,0,0,0.,12.0,0.,12.0,0.,12.0,0.,12.0
1979-07-26 10:11:00.040 ,0,0,0.,12.0,0.,12.0,0.,12.0,0.,12.0
1979-07-26 10:11:12.040 ,0,1,0.,12.0,0.,12.0,0.,12.0,0.,12.0
1979-07-26 10:11:24.040 ,0,1,0.,12.0,0.,12.0,0.,12.0,0.,12.0
1979-07-26 10:11:36.040 ,0,0,0.,12.0,0.,12.0,0.,12.0,0.,12.0
1979-07-26 10:11:48.040 ,0,0,0.,12.0,0.,12.0,0.,12.0,0.,12.0
1979-07-26 10:12:00.040 ,1,1,0.,12.0,0.,12.0,0.,12.0,0.,12.0
1979-07-26 10:12:12.040 ,1,1,0.,12.0,0.,12.0,0.,12.0,0.,12.0
1979-07-26 10:12:24.040 ,1,0,0.,12.0,0.,12.0,0.,12.0,0.,12.0
1979-07-26 10:12:36.040 ,1,0,0.,12.0,0.,12.0,0.,12.0,0.,12.0
1979-07-26 10:12:48.040 ,2,1,0.,12.0,0.,12.0,0.,12.0,0.,12.0
1979-07-26 10:13:00.040 ,2,1,0.,12.0,0.,12.0,0.,12.0,0.,12.0
1979-07-26 10:13:12.040 ,2,0,0.,12.0,0.,12.0,0.,12.0,0.,12.0
1979-07-26 10:13:24.040 ,2,0,0.,12.0,0.,12.0,0.,12.0,1.,12.0
1979-07-26 10:13:36.040 ,3,1,0.,12.0,0.,12.0,0.,12.0,0.,12.0
1979-07-26 10:13:48.040 ,3,1,0.,12.0,0.,12.0,0.,12.0,0.,12.0
1979-07-26 10:14:00.040 ,3,0,0.,12.0,0.,12.0,0.,12.0,0.,12.0
1979-07-26 10:14:12.040 ,3,0,0.,12.0,0.,12.0,0.,12.0,0.,12.0
1979-07-26 10:14:24.040 ,4,1,0.,12.0,0.,12.0,0.,12.0,0.,12.0
1979-07-26 10:14:36.040 ,4,1,0.,12.0,0.,12.0,0.,12.0,0.,12.0
1979-07-26 10:14:48.040 ,4,0,0.,12.0,0.,12.0,0.,12.0,0.,12.0
1979-07-26 10:15:00.040 ,4,0,0.,12.0,0.,12.0,0.,12.0,0.,12.0
1979-07-26 10:15:12.040 ,5,1,0.,12.0,0.,12.0,0.,12.0,0.,12.0
1979-07-26 10:15:24.040 ,5,1,0.,12.0,0.,12.0,0.,12.0,0.,12.0
1979-07-26 10:15:36.040 ,5,0,0.,12.0,0.,12.0,0.,12.0,0.,12.0
1979-07-26 10:15:48.040 ,5,0,0.,12.0,0.,12.0,0.,12.0,0.,12.0
1979-07-26 10:16:00.040 ,6,1,0.,12.0,0.,12.0,0.,12.0,0.,12.0
1979-07-26 10:16:12.040 ,6,1,0.,12.0,0.,12.0,0.,12.0,0.,12.0
1979-07-26 10:16:24.040 ,6,0,0.,12.0,0.,12.0,0.,12.0,0.,12.0
1979-07-26 10:16:36.040 ,6,0,0.,12.0,0.,12.0,0.,12.0,0.,12.0
1979-07-26 10:16:48.040 ,7,1,0.,12.0,0.,12.0,0.,12.0,0.,12.0
1979-07-26 10:17:00.040 ,7,1,0.,12.0,0.,12.0,0.,12.0,0.,12.0
1979-07-26 10:17:12.040 ,7,0,0.,12.0,0.,12.0,0.,12.0,0.,12.0
1979-07-26 10:17:24.040 ,7,0,0.,12.0,0.,12.0,0.,12.0,0.,12.0
1979-07-26 10:17:36.040 ,7,1,0.,12.0,0.,12.0,0.,12.0,0.,12.0
1979-07-26 10:17:48.040 ,7,1,0.,12.0,0.,12.0,0.,12.0,0.,12.0
1979-07-26 10:18:00.040 ,7,0,0.,12.0,0.,12.0,0.,12.0,0.,12.0
1979-07-26 10:18:12.040 ,7,0,0.,12.0,0.,12.0,0.,12.0,0.,12.0
1979-07-26 10:18:24.040 ,6,1,0.,12.0,0.,12.0,0.,12.0,0.,12.0